Weather reports worldwide

Advertisment
Milano/Linate, Italy (16080): temperature & dewpoint: 17.05.2019 14:00:00 - 23.05.2019 14:00:00 (CEST)Milano/Linate, Italy (16080): wind speed: 17.05.2019 14:00:00 - 23.05.2019 14:00:00 (CEST)Milano/Linate, Italy (16080): wind direction: 17.05.2019 14:00:00 - 23.05.2019 14:00:00 (CEST)Milano/Linate, Italy (16080): reduced air pressure: 17.05.2019 14:00:00 - 23.05.2019 14:00:00 (CEST)Milano/Linate, Italy (16080): visibility: 17.05.2019 14:00:00 - 23.05.2019 14:00:00 (CEST)Milano/Linate, Italy (16080): precipitation: 17.05.2019 14:00:00 - 23.05.2019 14:00:00 (CEST)
Date & Time tt [°C] td [°C] ff [km/h] ff [kn] dd ppp [hPa] vv [km] rr [mm]
23.05.2019 14:00:00 23,0 14,0 9 5 SW - 10 -
23.05.2019 13:00:00 22,0 13,0 5 3 W - 10 -
23.05.2019 12:00:00 22,0 14,0 8 4 SW - 10 -
23.05.2019 11:00:00 20,2 13,0 5 3 - 1016,7 10 0,0
23.05.2019 10:00:00 19,0 14,0 4 2 - - 10 -
23.05.2019 09:00:00 18,0 14,0 4 2 - - 10 -
23.05.2019 08:00:00 16,1 14,0 4 2 - 1016,9 10 -
23.05.2019 07:00:00 14,0 14,0 2 1 - - 7 -
23.05.2019 06:00:00 - - - - - - - -
23.05.2019 05:00:00 14,0 13,8 5 3 NE 1016,3 - 0,0
23.05.2019 04:00:00 - - - - - - - -
23.05.2019 03:00:00 15,0 15,0 4 2 - - 10 -
23.05.2019 02:00:00 16,0 15,5 2 1 - 1016,0 10 -
23.05.2019 01:00:00 17,0 16,0 4 2 WSW - 10 -
23.05.2019 00:00:00 17,0 15,0 4 2 NNW - 10 -
22.05.2019 23:00:00 17,1 15,6 5 3 W 1015,7 10 0,0
22.05.2019 22:00:00 17,0 15,0 11 6 N - 10 -
22.05.2019 21:00:00 21,0 14,0 5 3 - - 8 -
22.05.2019 20:00:00 21,1 14,4 8 4 SW 1013,0 10 -
22.05.2019 19:00:00 23,0 13,0 4 2 - - 6 -
22.05.2019 18:00:00 26,0 11,0 8 4 - - 10 -
22.05.2019 17:00:00 25,1 11,4 5 3 W 1012,6 10 0,0
22.05.2019 16:00:00 25,0 13,0 8 4 - - 10 -
22.05.2019 15:00:00 24,0 13,0 9 5 SSW - 10 -
22.05.2019 14:00:00 22,9 11,7 9 5 W 1013,8 10 -
22.05.2019 13:00:00 22,0 13,0 5 3 - - 10 -
22.05.2019 12:00:00 21,0 12,0 11 6 SSW - 10 -
22.05.2019 11:00:00 19,6 12,6 9 5 W 1014,4 10 0,0
22.05.2019 10:00:00 18,0 13,0 13 7 W - 10 -
22.05.2019 09:00:00 17,0 13,0 11 6 W - 10 -
22.05.2019 08:00:00 15,9 11,7 8 4 WSW 1014,0 10 -
22.05.2019 07:00:00 13,0 11,0 4 2 - - 10 -
22.05.2019 06:00:00 13,0 11,0 8 4 - - 10 -
22.05.2019 05:00:00 13,8 10,8 4 2 - 1013,1 10 0,0
22.05.2019 04:00:00 15,0 11,0 8 4 WNW - 10 -
22.05.2019 03:00:00 15,0 11,0 8 4 W - 10 -
22.05.2019 02:00:00 15,3 11,3 8 4 WNW 1013,1 10 -
22.05.2019 01:00:00 16,0 11,0 9 5 WNW - 10 -
22.05.2019 00:00:00 17,0 11,0 8 4 - - 10 -
21.05.2019 23:00:00 17,3 12,2 8 4 WNW 1013,2 10 0,0
21.05.2019 22:00:00 18,0 12,0 11 6 SW - 10 -
21.05.2019 21:00:00 20,0 12,0 9 5 SW - 10 -
21.05.2019 20:00:00 21,7 11,8 11 6 WSW 1009,7 10 -
21.05.2019 19:00:00 23,0 13,0 15 8 WSW - 10 -
21.05.2019 18:00:00 24,0 14,0 15 8 W - 10 -
21.05.2019 17:00:00 23,8 12,8 13 7 WSW 1008,5 10 0,0
21.05.2019 16:00:00 24,0 14,0 15 8 WSW - 10 -
21.05.2019 15:00:00 23,0 14,0 13 7 W - 10 -
21.05.2019 14:00:00 21,9 14,1 13 7 WSW 1008,6 10 -
21.05.2019 13:00:00 20,0 14,0 16 9 W - 10 -
21.05.2019 12:00:00 19,0 14,0 13 7 W - 10 -
21.05.2019 11:00:00 18,4 13,4 9 5 W 1008,7 10 0,0
21.05.2019 10:00:00 17,0 13,0 15 8 W - 10 -
21.05.2019 09:00:00 15,0 11,0 15 8 W - 10 -
21.05.2019 08:00:00 15,4 11,7 11 6 WNW 1007,9 10 -
21.05.2019 07:00:00 13,0 11,0 9 5 W - 10 -
21.05.2019 06:00:00 13,0 11,0 9 5 W - 10 -
21.05.2019 05:00:00 13,3 11,4 9 5 W 1007,3 10 0,0
21.05.2019 04:00:00 14,0 11,0 9 5 WNW - 10 -
21.05.2019 03:00:00 - - - - - - - -
21.05.2019 02:00:00 14,1 10,8 9 5 W 1007,4 10 -
21.05.2019 01:00:00 15,0 11,0 9 5 W - 10 -
21.05.2019 00:00:00 15,0 11,0 9 5 W - 10 -
20.05.2019 23:00:00 15,1 10,6 15 8 WSW 1006,9 10 0,0
20.05.2019 22:00:00 15,0 11,0 11 6 W - 10 -
20.05.2019 21:00:00 16,0 12,0 9 5 W - 10 -
20.05.2019 20:00:00 16,2 11,9 9 5 SW 1006,2 10 -
20.05.2019 19:00:00 17,0 13,0 5 3 SW - 10 -
20.05.2019 18:00:00 16,0 14,0 4 2 - - 10 -
20.05.2019 17:00:00 16,7 13,6 9 5 SSW 1006,1 10 0,0
20.05.2019 16:00:00 17,0 13,0 5 3 SW - 10 -
20.05.2019 15:00:00 17,0 13,0 8 4 WSW - 8 -
20.05.2019 14:00:00 16,2 13,7 5 3 SSW 1006,0 6 -
20.05.2019 13:00:00 16,0 13,0 5 3 WSW - 6 -
20.05.2019 12:00:00 15,0 13,0 4 2 - - 6 -
20.05.2019 11:00:00 14,9 13,7 5 3 SW 1005,4 5 0,0
20.05.2019 10:00:00 15,0 13,0 5 3 SW - 5 -
20.05.2019 09:00:00 14,0 13,0 5 3 W - 5 -
20.05.2019 08:00:00 13,7 13,2 5 3 W 1004,5 3,5 -
20.05.2019 07:00:00 13,0 13,0 5 3 WSW - 2,5 -
20.05.2019 06:00:00 13,0 13,0 4 2 - - 2,5 -
20.05.2019 05:00:00 13,0 13,0 2 1 - - 3,5 -
20.05.2019 04:00:00 12,0 12,0 5 3 S - 7 -
20.05.2019 03:00:00 13,0 13,0 4 2 - - 6 -
20.05.2019 02:00:00 13,2 13,1 4 2 SSW 1004,8 6 -
20.05.2019 01:00:00 - - - - - - - -
20.05.2019 00:00:00 14,0 13,0 2 1 - - 10 -
19.05.2019 23:00:00 13,7 13,4 2 1 - 1005,7 10 0,0
19.05.2019 22:00:00 14,0 13,0 2 1 - - 10 -
19.05.2019 21:00:00 14,0 13,0 2 1 - - 10 -
19.05.2019 20:00:00 14,5 13,0 2 1 - 1005,2 10 -
19.05.2019 19:00:00 15,0 13,0 4 2 - - 10 -
19.05.2019 18:00:00 14,0 12,0 4 2 - - 7 -
19.05.2019 17:00:00 14,8 13,2 4 2 - 1005,1 10 0,0
19.05.2019 16:00:00 15,0 13,0 4 2 - - 8 -
19.05.2019 15:00:00 15,0 12,0 5 3 SE - 10 -
19.05.2019 14:00:00 14,5 12,7 2 1 - 1005,0 10 -
19.05.2019 13:00:00 14,0 13,0 2 1 - - 3,5 -
19.05.2019 12:00:00 14,0 13,0 5 3 W - 10 -
19.05.2019 11:00:00 13,6 12,7 4 2 WNW 1005,0 6 0,0
19.05.2019 10:00:00 13,0 13,0 2 1 - - 2,5 -
19.05.2019 09:00:00 13,0 13,0 4 2 S - 2,5 -
19.05.2019 08:00:00 12,4 12,2 4 2 - 1004,7 3,0 -
19.05.2019 07:00:00 12,0 12,0 5 3 W - 4,3 -
19.05.2019 06:00:00 12,0 12,0 2 1 - - 5 -
19.05.2019 05:00:00 12,0 11,5 4 2 S 1005,1 10 0,0
19.05.2019 04:00:00 12,0 12,0 5 3 W - 10 -
19.05.2019 03:00:00 13,0 12,0 5 3 WSW - 10 -
19.05.2019 02:00:00 12,6 11,9 4 2 - 1006,4 9 -
19.05.2019 01:00:00 13,0 12,0 5 3 S - 10 -
19.05.2019 00:00:00 13,0 12,0 2 1 - - 10 -
18.05.2019 23:00:00 13,3 12,0 5 3 WSW 1007,1 10 0,0
18.05.2019 22:00:00 14,0 11,0 2 1 - - 10 -
18.05.2019 21:00:00 15,0 11,0 8 4 NW - 10 -
18.05.2019 20:00:00 15,1 12,8 4 2 - 1007,1 10 -
18.05.2019 19:00:00 15,0 12,0 4 2 W - 10 -
18.05.2019 18:00:00 16,0 12,0 4 2 - - 10 -
18.05.2019 17:00:00 15,2 10,5 2 1 - 1006,8 10 0,0
18.05.2019 16:00:00 16,0 10,0 8 4 NNW - 10 -
18.05.2019 15:00:00 16,0 11,0 11 6 N - 10 -
18.05.2019 14:00:00 15,0 11,5 11 6 N 1007,2 10 -
18.05.2019 13:00:00 15,0 12,0 11 6 NNW - 10 -
18.05.2019 12:00:00 14,0 12,0 8 4 N - 10 -
18.05.2019 11:00:00 13,6 11,8 15 8 NNE 1007,4 10 0,0
18.05.2019 10:00:00 13,0 12,0 11 6 N - 7 -
18.05.2019 09:00:00 13,0 12,0 5 3 N - 4,0 -
18.05.2019 08:00:00 12,2 11,6 4 2 NW 1007,2 10 -
18.05.2019 07:00:00 12,0 11,0 9 5 NE - 3,5 -
18.05.2019 06:00:00 12,0 11,0 9 5 ENE - 4,0 -
18.05.2019 05:00:00 12,1 11,3 11 6 E 1007,6 4,0 0,0
18.05.2019 04:00:00 13,0 12,0 15 8 SE - 10 -
18.05.2019 03:00:00 13,0 13,0 9 5 N - 5 -
18.05.2019 02:00:00 13,1 12,6 8 4 N 1008,7 5 -
18.05.2019 01:00:00 13,0 12,0 9 5 N - 5 -
18.05.2019 00:00:00 14,0 13,0 8 4 NNW - 6 -
17.05.2019 23:00:00 13,7 12,7 8 4 W 1009,4 6 0,0
17.05.2019 22:00:00 14,0 13,0 8 4 WNW - 6 -
17.05.2019 21:00:00 14,0 13,0 9 5 WSW - 6 -
17.05.2019 20:00:00 15,8 12,1 11 6 W 1008,2 8 -
17.05.2019 19:00:00 19,0 9,0 13 7 SE - 10 -
17.05.2019 18:00:00 18,0 10,0 8 4 E - 10 -
17.05.2019 17:00:00 18,3 10,0 13 7 E 1008,4 10 0,0
17.05.2019 16:00:00 19,0 10,0 13 7 ESE - 10 -
17.05.2019 15:00:00 19,0 9,0 15 8 ESE - 10 -
17.05.2019 14:00:00 18,3 9,3 16 9 SE 1009,4 10 -

tt = temperature
td = dewpoint
ff = wind speed
dd = wind direction
ppp = reduced air pressure
vv = visibility
rr = precipitation

Next stations